| time (UTC) | temp C | wind direction | speed KPH | gust KPH | rain 1hr cm | rain 24hr cm | rain mn cm | humidity % | barometer mb |
| 20260504023929 | 19 | 203 | 4.8 | 8.0 | 0.00 | 0.00 | 0.00 | 62 | 1019.0 |
| 20260504023429 | 19 | 234 | 1.6 | 4.8 | 0.00 | 0.00 | 0.00 | 62 | 1019.0 |
| 20260504022932 | 19 | 199 | 3.2 | 4.8 | 0.00 | 0.00 | 0.00 | 62 | 1019.0 |
| 20260504022430 | 19 | 184 | 3.2 | 6.4 | 0.00 | 0.00 | 0.00 | 62 | 1019.0 |
| 20260504021929 | 20 | 136 | 3.2 | 8.0 | 0.00 | 0.00 | 0.00 | 62 | 1019.0 |
| 20260504021430 | 20 | 230 | 3.2 | 4.8 | 0.00 | 0.00 | 0.00 | 62 | 1019.0 |
| 20260504020929 | 20 | 212 | 1.6 | 6.4 | 0.00 | 0.00 | 0.00 | 61 | 1019.0 |
| 20260504020429 | 20 | 277 | 3.2 | 6.4 | 0.00 | 0.00 | 0.00 | 60 | 1019.0 |
| 20260504015929 | 20 | 266 | 4.8 | 9.7 | 0.00 | 0.00 | 0.00 | 59 | 1018.0 |
| 20260504015429 | 20 | 260 | 6.4 | 11.3 | 0.00 | 0.00 | 0.00 | 59 | 1018.0 |
| 20260504014929 | 20 | 273 | 6.4 | 9.7 | 0.00 | 0.00 | 0.00 | 58 | 1018.0 |
| 20260504014429 | 21 | 257 | 6.4 | 12.9 | 0.00 | 0.00 | 0.00 | 56 | 1018.0 |
| 20260504013929 | 21 | 269 | 4.8 | 6.4 | 0.00 | 0.00 | 0.00 | 53 | 1018.0 |
| 20260504013429 | 21 | 241 | 0.0 | 1.6 | 0.00 | 0.00 | 0.00 | 54 | 1018.0 |
| 20260504012929 | 21 | 48 | 0.0 | 1.6 | 0.00 | 0.00 | 0.00 | 54 | 1018.0 |
| 20260504012429 | 21 | 0 | 1.6 | 3.2 | 0.00 | 0.00 | 0.00 | 54 | 1018.0 |
| 20260504011929 | 21 | 307 | 3.2 | 4.8 | 0.00 | 0.00 | 0.00 | 55 | 1018.0 |
| 20260504011429 | 21 | 300 | 4.8 | 8.0 | 0.00 | 0.00 | 0.00 | 56 | 1018.0 |
| 20260504010929 | 21 | 297 | 3.2 | 6.4 | 0.00 | 0.00 | 0.00 | 59 | 1018.0 |
| 20260504010429 | 21 | 272 | 6.4 | 9.7 | 0.00 | 0.00 | 0.00 | 60 | 1018.0 |
| 20260504005931 | 21 | 259 | 9.7 | 14.5 | 0.00 | 0.00 | 0.00 | 61 | 1018.0 |
| 20260504005429 | 21 | 259 | 11.3 | 14.5 | 0.00 | 0.00 | 0.00 | 63 | 1018.0 |
| 20260504004930 | 21 | 275 | 9.7 | 12.9 | 0.00 | 0.00 | 0.00 | 63 | 1018.0 |
| 20260504004429 | 21 | 255 | 12.9 | 16.1 | 0.00 | 0.00 | 0.00 | 64 | 1018.0 |
| 20260504003929 | 21 | 242 | 12.9 | 17.7 | 0.00 | 0.00 | 0.00 | 64 | 1018.0 |
| 20260504003429 | 21 | 258 | 16.1 | 19.3 | 0.00 | 0.00 | 0.00 | 65 | 1018.0 |
| 20260504002929 | 21 | 256 | 12.9 | 19.3 | 0.00 | 0.00 | 0.00 | 65 | 1018.0 |
| 20260504002429 | 21 | 249 | 12.9 | 17.7 | 0.00 | 0.00 | 0.00 | 65 | 1018.0 |
| 20260504001929 | 21 | 247 | 14.5 | 19.3 | 0.00 | 0.00 | 0.00 | 64 | 1018.0 |
| 20260504001431 | 21 | 252 | 12.9 | 16.1 | 0.00 | 0.00 | 0.00 | 64 | 1018.0 |
| 20260504000929 | 21 | 239 | 11.3 | 14.5 | 0.00 | 0.00 | 0.00 | 64 | 1018.0 |
| 20260504000431 | 21 | 254 | 12.9 | 14.5 | 0.00 | 0.00 | 0.00 | 63 | 1018.0 |
| 20260503235929 | 21 | 239 | 12.9 | 14.5 | 0.00 | 0.00 | 0.00 | 64 | 1018.0 |
| 20260503235429 | 21 | 245 | 12.9 | 17.7 | 0.00 | 0.00 | 0.00 | 64 | 1018.0 |
| 20260503234929 | 21 | 242 | 12.9 | 17.7 | 0.00 | 0.00 | 0.00 | 63 | 1018.0 |
| 20260503234429 | 21 | 246 | 11.3 | 14.5 | 0.00 | 0.00 | 0.00 | 62 | 1018.0 |
| 20260503233929 | 21 | 239 | 12.9 | 17.7 | 0.00 | 0.00 | 0.00 | 61 | 1018.0 |
| 20260503233429 | 21 | 234 | 11.3 | 14.5 | 0.00 | 0.00 | 0.00 | 62 | 1018.0 |
| 20260503232929 | 21 | 253 | 12.9 | 17.7 | 0.00 | 0.00 | 0.00 | 61 | 1018.0 |
| 20260503232429 | 21 | 245 | 14.5 | 17.7 | 0.00 | 0.00 | 0.00 | 61 | 1018.0 |
| 20260503231929 | 21 | 244 | 14.5 | 20.9 | 0.00 | 0.00 | 0.00 | 59 | 1018.0 |
| 20260503231433 | 21 | 250 | 14.5 | 17.7 | 0.00 | 0.00 | 0.00 | 60 | 1018.0 |
| 20260503230929 | 21 | 246 | 16.1 | 19.3 | 0.00 | 0.00 | 0.00 | 60 | 1018.0 |
| 20260503230429 | 21 | 254 | 16.1 | 17.7 | 0.00 | 0.00 | 0.00 | 59 | 1018.0 |
| 20260503225931 | 22 | 245 | 14.5 | 19.3 | 0.00 | 0.00 | 0.00 | 59 | 1018.0 |
| 20260503225429 | 22 | 250 | 12.9 | 17.7 | 0.00 | 0.00 | 0.00 | 58 | 1018.0 |
| 20260503224929 | 22 | 241 | 14.5 | 17.7 | 0.00 | 0.00 | 0.00 | 56 | 1018.0 |
| 20260503224429 | 22 | 221 | 11.3 | 14.5 | 0.00 | 0.00 | 0.00 | 57 | 1018.0 |
| 20260503223929 | 22 | 222 | 12.9 | 17.7 | 0.00 | 0.00 | 0.00 | 56 | 1018.0 |
| 20260503223429 | 22 | 225 | 11.3 | 14.5 | 0.00 | 0.00 | 0.00 | 55 | 1018.0 |
| 20260503222930 | 22 | 232 | 12.9 | 16.1 | 0.00 | 0.00 | 0.00 | 54 | 1018.0 |
| 20260503222429 | 22 | 234 | 12.9 | 16.1 | 0.00 | 0.00 | 0.00 | 53 | 1018.0 |
| 20260503221929 | 22 | 229 | 11.3 | 14.5 | 0.00 | 0.00 | 0.00 | 51 | 1018.0 |
| 20260503221430 | 22 | 226 | 9.7 | 14.5 | 0.00 | 0.00 | 0.00 | 50 | 1018.0 |
| 20260503220929 | 22 | 240 | 11.3 | 14.5 | 0.00 | 0.00 | 0.00 | 50 | 1018.0 |
| 20260503220429 | 22 | 235 | 11.3 | 14.5 | 0.00 | 0.00 | 0.00 | 49 | 1018.0 |
| 20260503215930 | 22 | 237 | 11.3 | 14.5 | 0.00 | 0.00 | 0.00 | 49 | 1018.0 |
| 20260503215429 | 22 | 227 | 11.3 | 14.5 | 0.00 | 0.00 | 0.00 | 49 | 1018.0 |
| 20260503214929 | 22 | 225 | 11.3 | 16.1 | 0.00 | 0.00 | 0.00 | 49 | 1018.0 |
| 20260503214429 | 22 | 234 | 11.3 | 14.5 | 0.00 | 0.00 | 0.00 | 47 | 1018.0 |
| 20260503213929 | 22 | 214 | 12.9 | 19.3 | 0.00 | 0.00 | 0.00 | 48 | 1018.0 |
| 20260503213429 | 22 | 218 | 12.9 | 19.3 | 0.00 | 0.00 | 0.00 | 47 | 1018.0 |
| 20260503212929 | 23 | 234 | 9.7 | 12.9 | 0.00 | 0.00 | 0.00 | 43 | 1018.0 |
| 20260503212429 | 22 | 244 | 12.9 | 17.7 | 0.00 | 0.00 | 0.00 | 45 | 1018.0 |
| 20260503211929 | 23 | 228 | 12.9 | 16.1 | 0.00 | 0.00 | 0.00 | 46 | 1018.0 |
| 20260503211430 | 23 | 254 | 11.3 | 17.7 | 0.00 | 0.00 | 0.00 | 45 | 1018.0 |
| 20260503210929 | 22 | 258 | 11.3 | 14.5 | 0.00 | 0.00 | 0.00 | 44 | 1018.0 |
| 20260503210429 | 22 | 255 | 11.3 | 14.5 | 0.00 | 0.00 | 0.00 | 47 | 1018.0 |
| 20260503205929 | 22 | 231 | 11.3 | 14.5 | 0.00 | 0.00 | 0.00 | 50 | 1018.0 |
| 20260503205429 | 22 | 230 | 11.3 | 16.1 | 0.00 | 0.00 | 0.00 | 51 | 1018.0 |
| 20260503204929 | 22 | 222 | 11.3 | 12.9 | 0.00 | 0.00 | 0.00 | 50 | 1019.0 |
| 20260503204429 | 22 | 225 | 12.9 | 16.1 | 0.00 | 0.00 | 0.00 | 48 | 1019.0 |
| 20260503203929 | 22 | 226 | 12.9 | 17.7 | 0.00 | 0.00 | 0.00 | 48 | 1019.0 |
| 20260503203429 | 22 | 240 | 11.3 | 16.1 | 0.00 | 0.00 | 0.00 | 50 | 1019.0 |
| 20260503202929 | 22 | 245 | 11.3 | 14.5 | 0.00 | 0.00 | 0.00 | 50 | 1019.0 |
| 20260503202429 | 22 | 235 | 9.7 | 16.1 | 0.00 | 0.00 | 0.00 | 52 | 1019.0 |
| 20260503201929 | 22 | 222 | 11.3 | 14.5 | 0.00 | 0.00 | 0.00 | 51 | 1019.0 |
| 20260503201429 | 22 | 180 | 8.0 | 16.1 | 0.00 | 0.00 | 0.00 | 51 | 1019.0 |
| 20260503200929 | 22 | 162 | 9.7 | 12.9 | 0.00 | 0.00 | 0.00 | 50 | 1019.0 |
| 20260503200429 | 22 | 148 | 12.9 | 16.1 | 0.00 | 0.00 | 0.00 | 49 | 1019.0 |
| 20260503195929 | 22 | 147 | 9.7 | 17.7 | 0.00 | 0.00 | 0.00 | 48 | 1019.0 |
| 20260503195429 | 22 | 181 | 8.0 | 14.5 | 0.00 | 0.00 | 0.00 | 42 | 1019.0 |
| 20260503194929 | 23 | 169 | 8.0 | 14.5 | 0.00 | 0.00 | 0.00 | 44 | 1019.0 |
| 20260503194430 | 23 | 191 | 9.7 | 14.5 | 0.00 | 0.00 | 0.00 | 46 | 1019.0 |
| 20260503193929 | 23 | 157 | 8.0 | 14.5 | 0.00 | 0.00 | 0.00 | 44 | 1019.0 |
| 20260503193429 | 24 | 205 | 8.0 | 12.9 | 0.00 | 0.00 | 0.00 | 47 | 1020.0 |
| 20260503192929 | 25 | 113 | 8.0 | 11.3 | 0.00 | 0.00 | 0.00 | 36 | 1020.0 |
| 20260503192429 | 25 | 112 | 6.4 | 12.9 | 0.00 | 0.00 | 0.00 | 32 | 1020.0 |
| 20260503191929 | 25 | 64 | 6.4 | 11.3 | 0.00 | 0.00 | 0.00 | 32 | 1020.0 |
| 20260503191429 | 25 | 293 | 8.0 | 9.7 | 0.00 | 0.00 | 0.00 | 32 | 1020.0 |
| 20260503190929 | 25 | 75 | 9.7 | 12.9 | 0.00 | 0.00 | 0.00 | 31 | 1020.0 |
| 20260503190429 | 25 | 96 | 8.0 | 12.9 | 0.00 | 0.00 | 0.00 | 32 | 1020.0 |
| 20260503185929 | 25 | 79 | 6.4 | 16.1 | 0.00 | 0.00 | 0.00 | 32 | 1020.0 |
| 20260503185429 | 25 | 127 | 6.4 | 12.9 | 0.00 | 0.00 | 0.00 | 32 | 1020.0 |
| 20260503184929 | 25 | 201 | 4.8 | 6.4 | 0.00 | 0.00 | 0.00 | 32 | 1020.0 |
| 20260503184429 | 25 | 161 | 3.2 | 8.0 | 0.00 | 0.00 | 0.00 | 32 | 1020.0 |
| 20260503183930 | 25 | 271 | 6.4 | 11.3 | 0.00 | 0.00 | 0.00 | 32 | 1020.0 |
| 20260503183430 | 24 | 219 | 6.4 | 11.3 | 0.00 | 0.00 | 0.00 | 32 | 1020.0 |
| 20260503182929 | 24 | 80 | 6.4 | 9.7 | 0.00 | 0.00 | 0.00 | 32 | 1020.0 |
| 20260503182430 | 24 | 91 | 8.0 | 14.5 | 0.00 | 0.00 | 0.00 | 32 | 1020.0 |
| 20260503181929 | 24 | 206 | 4.8 | 8.0 | 0.00 | 0.00 | 0.00 | 32 | 1021.0 |
| 20260503181429 | 24 | 21 | 1.6 | 6.4 | 0.00 | 0.00 | 0.00 | 32 | 1021.0 |
| 20260503180930 | 24 | 100 | 8.0 | 12.9 | 0.00 | 0.00 | 0.00 | 32 | 1021.0 |
| 20260503180429 | 24 | 22 | 6.4 | 12.9 | 0.00 | 0.00 | 0.00 | 31 | 1021.0 |
| 20260503175929 | 24 | 163 | 4.8 | 8.0 | 0.00 | 0.00 | 0.00 | 31 | 1021.0 |
| 20260503175429 | 24 | 170 | 8.0 | 12.9 | 0.00 | 0.00 | 0.00 | 31 | 1021.0 |
| 20260503174929 | 24 | 92 | 9.7 | 14.5 | 0.00 | 0.00 | 0.00 | 30 | 1021.0 |
| 20260503174429 | 24 | 71 | 4.8 | 12.9 | 0.00 | 0.00 | 0.00 | 30 | 1021.0 |
| 20260503173929 | 23 | 254 | 6.4 | 12.9 | 0.00 | 0.00 | 0.00 | 31 | 1021.0 |
| 20260503173430 | 23 | 144 | 9.7 | 14.5 | 0.00 | 0.00 | 0.00 | 31 | 1021.0 |
| 20260503172930 | 23 | 56 | 6.4 | 12.9 | 0.00 | 0.00 | 0.00 | 30 | 1021.0 |
| 20260503172429 | 23 | 67 | 9.7 | 17.7 | 0.00 | 0.00 | 0.00 | 31 | 1021.0 |
| 20260503171930 | 23 | 164 | 8.0 | 14.5 | 0.00 | 0.00 | 0.00 | 31 | 1021.0 |
| 20260503171429 | 23 | 190 | 12.9 | 22.5 | 0.00 | 0.00 | 0.00 | 31 | 1021.0 |
| 20260503170929 | 23 | 113 | 8.0 | 14.5 | 0.00 | 0.00 | 0.00 | 33 | 1021.0 |
| 20260503170429 | 23 | 192 | 8.0 | 11.3 | 0.00 | 0.00 | 0.00 | 32 | 1021.0 |
| 20260503150929 | 22 | 128 | 6.4 | 9.7 | 0.00 | 0.00 | 0.00 | 41 | 1022.0 |
| 20260503150429 | 21 | 195 | 3.2 | 6.4 | 0.00 | 0.00 | 0.00 | 44 | 1022.0 |
| 20260503130929 | 16 | 181 | 6.4 | 9.7 | 0.00 | 0.00 | 0.00 | 58 | 1021.0 |
| 20260503130429 | 16 | 202 | 4.8 | 8.0 | 0.00 | 0.00 | 0.00 | 59 | 1021.0 |
| 20260503110429 | 13 | 193 | 0.0 | 0.0 | 0.00 | 0.00 | 0.00 | 66 | 1020.0 |
| 20260503081429 | 15 | 172 | 3.2 | 3.2 | 0.00 | 0.00 | 0.00 | 64 | 1019.0 |
| 20260503080929 | 15 | 152 | 6.4 | 6.4 | 0.00 | 0.00 | 0.00 | 63 | 1019.0 |
| 20260503080429 | 15 | 181 | 6.4 | 9.7 | 0.00 | 0.00 | 0.00 | 63 | 1019.0 |
| 20260503072929 | 15 | 180 | 3.2 | 6.4 | 0.00 | 0.00 | 0.00 | 63 | 1019.0 |
| 20260503041929 | 17 | 174 | 6.4 | 9.7 | 0.00 | 0.00 | 3.20 | 59 | 1018.0 |
| 20260503041431 | 17 | 162 | 6.4 | 9.7 | 0.00 | 0.00 | 3.20 | 60 | 1018.0 |
| 20260503040929 | 17 | 177 | 3.2 | 6.4 | 0.00 | 0.00 | 3.20 | 59 | 1018.0 |
| 20260503040429 | 17 | 187 | 6.4 | 8.0 | 0.00 | 0.00 | 3.20 | 58 | 1018.0 |
| 20260503033429 | 17 | 175 | 8.0 | 11.3 | 0.00 | 0.00 | 3.20 | 54 | 1018.0 |
| 20260503032930 | 17 | 185 | 8.0 | 11.3 | 0.00 | 0.00 | 3.20 | 55 | 1018.0 |
| 20260503031930 | 17 | 179 | 8.0 | 9.7 | 0.00 | 0.00 | 3.20 | 53 | 1017.0 |
| 20260503031430 | 17 | 187 | 8.0 | 11.3 | 0.00 | 0.00 | 3.20 | 53 | 1017.0 |
| 20260503030929 | 17 | 199 | 8.0 | 12.9 | 0.00 | 0.00 | 3.20 | 52 | 1017.0 |
| 20260503030429 | 17 | 184 | 4.8 | 9.7 | 0.00 | 0.00 | 3.20 | 52 | 1017.0 |
| 20260503025931 | 17 | 190 | 8.0 | 9.7 | 0.00 | 0.00 | 3.20 | 53 | 1017.0 |
| 20260503025429 | 17 | 190 | 6.4 | 14.5 | 0.00 | 0.00 | 3.20 | 52 | 1017.0 |
| 20260503024929 | 18 | 176 | 6.4 | 9.7 | 0.00 | 0.00 | 3.20 | 52 | 1017.0 |
| 20260503024429 | 18 | 177 | 6.4 | 9.7 | 0.00 | 0.00 | 3.20 | 51 | 1017.0 |